[[{"header":{"parameterUnit":"m.s-1","parameterCategory":1,"la1":30.2991,"la2":30.254,"lo1":-89.0895,"lo2":-89.0444,"dy":0.0017,"dx":0.0017,"nx":28,"ny":28,"refTime":"2023-08-25T21:00:00:Z","depth":0,"parameterNumber":2,"parameterNumberName":"U-component_of_WINDS"},"data":[0,0,0,0,0,0,0,0,0,0,0,0,0,0,0,0,0,0,0,0,0,0,0,0,0,0,0,0,0,0,0,0,0,0,0,0,0,0,0,0,0,0,0,0,0,0,0,0,0,0,0,0,0,0,0,0,0,0,3.884,3.8841,0,3.8982,3.8983,3.8985,3.8967,3.8965,3.8962,3.896,3.9105,3.9111,3.9117,0,0,0,0,0,0,0,0,0,0,0,0,0,3.855,3.8556,3.8839,3.8841,3.8843,3.8981,3.8983,3.8985,3.8967,3.8965,3.8962,3.8959,3.9103,3.911,3.9118,0,0,0,0,0,0,0,0,0,0,0,0,0,3.8683,3.8557,3.8839,3.8851,3.8853,3.8981,3.8984,3.8986,3.8968,3.8965,3.8961,3.8958,3.9101,3.911,3.9119,3.9244,0,0,3.9146,3.915,0,0,0,0,0,0,0,0,3.8675,3.8693,3.8847,3.885,3.8853,3.8953,3.8935,3.9072,3.8969,3.8924,3.896,3.8956,3.9057,3.907,3.9104,3.9251,3.9257,3.9147,3.9152,3.9156,3.9159,0,0,0,0,0,0,0,3.8666,3.8687,3.8896,3.8849,3.8853,3.8848,3.8863,3.8961,3.9009,3.8928,3.8927,3.8944,3.9058,3.9095,3.9107,3.9259,3.9147,3.9155,3.916,3.9164,3.9513,3.9516,0,0,0,0,0,0,3.8654,3.8679,3.8891,3.89,3.8754,3.8856,3.8873,3.8925,3.9007,3.9017,3.8947,3.8943,3.9082,3.9097,3.9112,3.9262,3.9156,3.9165,3.917,3.9509,3.9513,3.9518,0,0,0,0,0,0,3.8648,3.8673,3.8885,3.879,3.8816,3.8865,3.8923,3.8929,3.8966,3.9022,3.903,3.8976,3.9079,3.91,3.9211,3.9267,3.9169,3.9177,3.9504,3.951,3.9516,3.9564,0,0,0,0,0,0,3.864,3.8671,3.872,3.8791,3.8821,3.8982,3.8927,3.8934,3.8982,3.8978,3.9051,3.906,3.9078,3.9197,3.922,3.9277,3.9184,3.9499,3.9507,3.9514,3.9557,3.957,3.9582,0,0,0,0,0,3.8629,3.8728,3.8722,3.8748,3.8883,3.8985,3.9003,3.9022,3.8987,3.9035,3.9071,3.9058,3.9258,3.9209,3.9234,3.9295,3.9496,3.9505,3.9513,3.9552,3.9568,3.9581,0,0,0,0,0,0,3.8662,3.8737,3.8732,3.8856,3.8915,3.8982,3.9044,3.9039,3.9108,3.9101,3.9121,3.9138,3.925,3.9284,3.9228,3.942,3.9372,3.9386,3.9393,3.9408,3.942,3.9408,3.9191,0,0,0,0,0,3.8684,3.8761,3.8823,3.8926,3.8956,3.8995,3.904,3.905,3.9111,3.9135,3.9179,3.9238,3.9314,3.9364,3.9437,3.9563,3.9577,3.9617,3.963,3.9639,3.965,3.9717,3.9735,3.9546,3.9546,3.9546,0,0,3.8729,3.878,3.8827,3.8934,3.898,3.9058,3.9016,3.9101,3.9159,3.9148,3.9255,3.9289,3.9357,3.9475,3.9529,3.9507,3.9706,3.965,3.9658,3.9664,3.9728,3.9746,3.9761,3.9552,3.9551,3.955,0,0,3.8851,3.8899,3.8989,3.9036,3.9106,3.9132,3.9153,3.9222,3.9244,3.9352,3.9344,3.9414,3.9545,3.9592,3.9633,3.9773,3.9763,3.9796,3.9859,3.9924,3.9939,3.9952,3.9999,4.0016,3.9808,3.9808,3.9808,0,3.8898,3.9017,3.9036,3.9122,3.9168,3.9162,3.9253,3.9298,3.9388,3.942,3.9394,3.9556,3.9602,3.973,3.9764,3.9799,3.9822,3.9787,3.9935,3.9949,3.9961,4.0006,4.0024,3.9811,3.9811,3.9811,3.981,0,3.907,3.9152,3.9217,3.9303,3.9357,3.9445,3.9477,3.9529,3.9534,3.9562,3.967,3.9725,3.9807,3.9839,3.9845,3.9968,3.9951,3.9931,3.9882,3.9982,4.0024,4.0042,3.9816,3.9815,3.9814,3.9813,0,0,3.9215,3.9312,3.9335,3.9373,3.945,3.9513,3.9601,3.9681,3.9724,3.9788,3.9859,3.997,3.995,3.9997,4.0009,4.0066,4.017,4.0038,4.004,4.0058,4.0305,4.0318,4.0338,4.0165,4.0168,4.0171,4.0298,0,3.9343,3.9496,3.9516,3.9652,3.9727,3.9722,3.9798,3.9852,3.9881,3.9948,3.9979,4.0056,4.0026,4.0053,4.011,4.0145,4.0219,4.0137,4.023,4.0233,4.021,4.0361,4.0375,4.0493,4.0315,4.0318,4.032,0,3.9511,3.9578,3.9721,3.9786,3.9818,3.9886,3.996,4.0025,4.0087,4.0103,4.0155,4.0159,4.0248,4.0198,4.032,4.0263,4.0303,4.0326,4.0331,4.0338,4.028,4.0369,4.0531,4.0548,4.0347,4.0345,4.0343,0,3.9599,3.9725,3.9826,3.986,3.9939,3.9986,4.0021,4.008,4.0126,4.0192,4.0222,4.0297,4.0338,4.0396,4.0419,4.0381,4.0539,4.0492,4.0553,4.0552,4.0584,4.0581,4.0752,4.0615,4.0614,4.0614,4.0614,0,3.9737,3.9824,3.9866,3.9928,4.0025,4.0047,4.0142,4.0176,4.0228,4.0295,4.0297,4.036,4.0389,4.0456,4.0476,4.0572,4.0591,4.0606,4.0609,4.0604,4.0601,4.0628,4.0619,4.0619,4.0618,4.0617,4.0616,0,3.9851,3.9883,3.9992,4.0058,4.0077,4.0145,4.0201,4.026,4.0288,4.0373,4.0394,4.0438,4.0517,4.0547,4.0645,4.0658,4.0768,4.0766,4.0746,4.0747,4.0805,4.0798,4.0996,4.1022,4.0871,4.0872,4.0873,0,3.9935,4.0002,4.0075,4.012,4.0156,4.023,4.0277,4.0301,4.0351,4.0425,4.0475,4.0554,4.0618,4.0746,4.0785,4.0859,4.0858,4.0922,4.0869,4.086,4.0855,4.0849,4.0855,4.0931,4.0933,4.0934,4.0935,0,4.0081,4.0093,4.0162,4.0236,4.0292,4.0352,4.0409,4.0446,4.0479,4.0534,4.0615,4.0665,4.0763,4.0841,4.0917,4.0952,4.0948,4.0952,4.0969,4.0963,4.0947,4.0953,4.077,4.0946,4.0945,4.0944,4.0944,4.0943,4.0181,4.0239,4.0298,4.0374,4.042,4.0473,4.0532,4.0567,4.0635,4.0716,4.0727,4.0813,4.0872,4.0973,4.1012,4.1079,4.1062,4.1088,4.1094,4.1099,4.1102,4.0939,4.1093,4.1093,4.1093,4.1093,4.1092,0,4.0324,4.0362,4.0432,4.0511,4.0571,4.0563,4.0626,4.0676,4.0751,4.0807,4.087,4.0962,4.1037,4.1083,4.1158,4.1203,4.1203,4.1222,4.1217,4.1224,4.1115,4.109,4.122,4.122,4.122,4.122,4.122,4.122,4.0405,4.0502,4.0521,4.064,4.0678,4.0762,4.0798,4.0847,4.0891,4.0993,4.1056,4.1085,4.1136,4.1215,4.1283,4.1295,4.1321,4.1341,4.135,4.1246,4.1233,4.122,4.1197,4.1347,4.1347,4.1454,4.1455,4.1456]},{"header":{"parameterUnit":"m.s-1","parameterCategory":1,"la1":30.2991,"la2":30.254,"lo1":-89.0895,"lo2":-89.0444,"dy":0.0017,"dx":0.0017,"nx":28,"ny":28,"refTime":"2023-08-25T21:00:00:Z","depth":0,"parameterNumber":3,"parameterNumberName":"V-component_of_WINDS"},"data":[0,0,0,0,0,0,0,0,0,0,0,0,0,0,0,0,0,0,0,0,0,0,0,0,0,0,0,0,0,0,0,0,0,0,0,0,0,0,0,0,0,0,0,0,0,0,0,0,0,0,0,0,0,0,0,0,0,0,1.9979,1.998,0,2.0,2.0,2.0,1.9953,1.9952,1.995,1.9949,1.9969,1.9971,1.9973,0,0,0,0,0,0,0,0,0,0,0,0,0,1.9897,1.9899,1.9979,1.998,1.998,2.0,2.0,2.0001,1.9953,1.9952,1.995,1.9948,1.9968,1.9971,1.9973,0,0,0,0,0,0,0,0,0,0,0,0,0,1.9927,1.9899,1.9979,1.9959,1.9957,2.0,2.0,2.0001,1.9954,1.9952,1.9949,1.9947,1.9968,1.997,1.9973,2.0037,0,0,1.9982,1.9984,0,0,0,0,0,0,0,0,1.9925,1.993,1.9962,1.996,1.9959,1.9972,1.9979,2.0013,1.9954,1.9955,1.9949,1.9946,1.9972,1.9974,1.9983,2.0038,2.0038,1.9983,1.9984,1.9986,1.9986,0,0,0,0,0,0,0,1.9923,1.9929,1.9987,1.9962,1.996,1.9948,1.995,1.9985,1.9976,1.9955,1.9951,1.9955,1.997,1.998,1.9983,2.0039,1.9982,1.9985,1.9987,1.9988,2.0145,2.0147,0,0,0,0,0,0,1.9924,1.9927,1.9987,1.9988,1.9936,1.9951,1.9953,1.997,1.9975,1.9974,1.9957,1.9952,1.9976,1.998,1.9984,2.0057,1.9986,1.9988,1.999,2.0142,2.0145,2.0148,0,0,0,0,0,0,1.9922,1.993,1.9986,1.9957,1.9963,1.9955,1.9974,1.9971,1.9981,1.9977,1.9975,1.9968,1.9975,1.998,2.0023,2.0057,1.999,1.9992,2.0139,2.0143,2.0146,2.0205,0,0,0,0,0,0,1.992,1.9929,1.9954,1.9958,1.9965,2.0026,1.9976,1.9973,1.9986,1.9981,1.9987,1.9986,1.9973,2.0019,2.0026,2.006,1.9995,2.0136,2.0141,2.0145,2.02,2.0211,2.0219,0,0,0,0,0,1.9917,1.997,1.9956,1.9963,1.9995,2.0028,2.0032,2.0017,1.9989,2.0014,2.001,1.9986,2.0052,2.0024,2.0032,2.0067,2.0134,2.014,2.0145,2.0196,2.0209,2.0219,0,0,0,0,0,0,1.9971,1.997,1.9954,2.001,2.0019,2.002,2.0051,2.0031,2.0049,2.0043,2.0023,2.0024,2.0072,2.0074,2.0042,2.0127,2.0088,2.0096,2.0125,2.0136,2.0146,2.0144,1.9997,0,0,0,0,0,1.9989,2.0016,2.0014,2.0063,2.0069,2.0059,2.0073,2.006,2.0069,2.0073,2.0073,2.0083,2.0105,2.0121,2.0142,2.02,2.02,2.0228,2.0237,2.0245,2.0251,2.0281,2.0293,2.0166,2.0165,2.0165,0,0,2.0027,2.003,2.0048,2.0074,2.008,2.0108,2.0063,2.0095,2.0115,2.0078,2.0119,2.0119,2.0129,2.018,2.0202,2.0183,2.0286,2.0252,2.0258,2.026,2.0288,2.03,2.0311,2.0169,2.0169,2.0168,0,0,2.011,2.0115,2.0156,2.0163,2.0173,2.0165,2.0175,2.0179,2.0178,2.0219,2.0191,2.0215,2.0255,2.0262,2.0271,2.0355,2.0333,2.0363,2.0412,2.0441,2.0451,2.046,2.0489,2.05,2.0369,2.0369,2.0369,0,2.0156,2.0197,2.018,2.0213,2.0225,2.0192,2.0232,2.024,2.0256,2.0264,2.0242,2.0291,2.0295,2.0346,2.0367,2.0375,2.0385,2.0362,2.0451,2.046,2.0468,2.0496,2.0507,2.0373,2.0372,2.0372,2.0372,0,2.0252,2.0282,2.0313,2.0329,2.0344,2.0381,2.0368,2.0386,2.0371,2.0366,2.0407,2.0411,2.0431,2.0443,2.0429,2.0492,2.048,2.0455,2.0415,2.0484,2.0509,2.052,2.0378,2.0377,2.0376,2.0375,0,0,2.0371,2.0376,2.0387,2.0394,2.0401,2.0423,2.0458,2.0478,2.0492,2.0504,2.0532,2.0566,2.0543,2.0553,2.054,2.0565,2.0631,2.0537,2.0537,2.0554,2.0699,2.0718,2.073,2.0616,2.0618,2.0619,2.0698,0,2.0452,2.0513,2.0497,2.0556,2.0582,2.0551,2.0581,2.0588,2.0584,2.0605,2.06,2.0624,2.0592,2.0598,2.0622,2.0618,2.066,2.0612,2.0641,2.0642,2.064,2.0744,2.0764,2.0838,2.0708,2.071,2.0711,0,2.0556,2.0571,2.0634,2.0635,2.0646,2.0673,2.0689,2.071,2.0717,2.0712,2.0723,2.0704,2.0737,2.0697,2.0742,2.071,2.0721,2.0721,2.0723,2.0725,2.0681,2.0748,2.0862,2.0873,2.0727,2.0726,2.0725,0,2.0635,2.0671,2.0713,2.0719,2.0723,2.0742,2.0745,2.075,2.0762,2.0776,2.0784,2.0802,2.0811,2.0825,2.0811,2.0784,2.0858,2.0817,2.0854,2.0855,2.0871,2.0871,2.0988,2.0879,2.0879,2.0879,2.0879,0,2.0728,2.0767,2.0748,2.0774,2.0816,2.0797,2.0839,2.0838,2.0842,2.0866,2.084,2.0863,2.0843,2.0864,2.0854,2.0892,2.0897,2.0893,2.089,2.0895,2.0896,2.0902,2.0896,2.0882,2.0881,2.088,2.088,0,2.0824,2.0813,2.0856,2.0855,2.0856,2.0887,2.0886,2.0909,2.0902,2.0933,2.0939,2.0929,2.0952,2.0939,2.0963,2.0956,2.1006,2.0995,2.1003,2.1,2.1038,2.1035,2.1163,2.1179,2.1061,2.1062,2.1063,0,2.0883,2.0913,2.0915,2.0929,2.0933,2.0956,2.0968,2.0951,2.0964,2.0974,2.0996,2.1017,2.1033,2.1071,2.1065,2.1083,2.1073,2.1117,2.1076,2.108,2.1073,2.1071,2.1074,2.1125,2.1127,2.1128,2.1129,0,2.099,2.0983,2.1002,2.1019,2.1034,2.1047,2.1057,2.107,2.1052,2.1069,2.1092,2.1104,2.1128,2.1149,2.1164,2.1166,2.1144,2.1142,2.1151,2.1157,2.116,2.1158,2.1026,2.1139,2.1138,2.1137,2.1136,2.1136,2.1069,2.1093,2.1098,2.112,2.1125,2.1135,2.1156,2.1152,2.1171,2.119,2.1178,2.1205,2.121,2.1228,2.1232,2.1253,2.1235,2.1249,2.1252,2.1256,2.1261,2.1157,2.1256,2.1255,2.1255,2.1255,2.1255,0,2.1174,2.1176,2.1196,2.121,2.1227,2.1205,2.1215,2.123,2.1254,2.1261,2.1277,2.1303,2.1323,2.1318,2.1336,2.1353,2.1344,2.1358,2.1357,2.1357,2.1276,2.1266,2.1366,2.1366,2.1366,2.1366,2.1366,2.1366,2.1231,2.127,2.1263,2.1304,2.1305,2.1331,2.1338,2.1347,2.1352,2.1382,2.1399,2.1395,2.1397,2.1415,2.1431,2.143,2.1437,2.1455,2.145,2.1374,2.1363,2.1353,2.1343,2.1457,2.1457,2.1529,2.153,2.153]}]]